Meteo Giornale » Osservazioni meteo Stati Uniti (USA) » Londonville

ore: 20:35 - Osservazioni Meteo Londonville
Lat. 44° 34' N Lon. 72° 1' W Alt. 363 metri s.l.m.

sereno America/New_York

12 °C

Sereno

Temp. 24 Ore

-1 °C

15 °C

Ovest

14.8 Km/h

Dew point 5 °C

Umidità 62 %

Visibilità  10 Km

Il sole sorge alle ore 06:34

Il sole tramonta alle ore 18:46

Data e Ora Cielo e Fenomeni T °C DP °C Um. % Pres. hPa Vis. km Vento km/h
Oggi h: 20:35 sereno Sereno 12 5 62 1012 10 O 14.8
Oggi h: 20:15 sereno Sereno 12 5 62 1012 10 O 11.1
Oggi h: 19:55 sereno Sereno 12 5 62 1013 10 O 13
Oggi h: 19:35 sereno Sereno 12 5 62 1013 10 O 16.7
Oggi h: 19:15 sereno Sereno 13 5 58 1013 10 O 9.3
Oggi h: 18:55 sereno Sereno 13 5 58 1013 10 O 9.3
Oggi h: 18:35 sereno Sereno 14 5 54 1013 10 O 9.3
Oggi h: 18:15 sereno Sereno 14 5 54 1013 10 O 9.3
Oggi h: 17:55 sereno Sereno 14 5 54 1014 10 O 7.4
Oggi h: 17:35 sereno Sereno 14 4 50 1014 10 O 18.5
Oggi h: 17:15 sereno Sereno 15 4 47 1014 10 O/NO 14.8
Oggi h: 16:55 sereno Sereno 15 4 47 1014 10 O 11.1
Oggi h: 16:35 sereno Sereno 15 4 47 1015 10 O/NO 13
Oggi h: 16:15 sereno Sereno 15 4 47 1015 10 NO 9.3
Oggi h: 15:55 sereno Sereno 15 4 47 1015 10 O/NO 16.7
Oggi h: 15:35 sereno Sereno 14 4 50 1016 10 O/NO 13
Oggi h: 15:15 sereno Sereno 14 3 47 1016 10 O/NO 13
Oggi h: 14:55 sereno Sereno 15 3 44 1016 10 O/NO 16.7
Oggi h: 14:35 sereno Sereno 15 2 41 1017 10 NO 20.3
Oggi h: 14:15 sereno Sereno 15 1 38 1017 10 O/NO 16.7
Oggi h: 13:15 sereno Sereno 15 2 41 1019 10 O/NO 14.8
Oggi h: 12:55 sereno Sereno 15 2 41 1019 10 O/NO 11.1
Oggi h: 12:35 sereno Sereno 15 1 38 1020 10 O/NO 18.5
Oggi h: 12:15 sereno Sereno 15 1 38 1020 10 O/NO 9.3
Oggi h: 11:55 sereno Sereno 14 0 38 1020 10 O 13
Oggi h: 11:35 sereno Sereno 14 0 38 1021 10 NO 7.4
Oggi h: 11:15 sereno Sereno 13 1 43 1021 10 N 9.3
Oggi h: 10:55 sereno Sereno 11 3 57 1022 10 N 0
Oggi h: 10:35 sereno Sereno 10 2 57 1022 10 N 0
Oggi h: 09:55 sereno Sereno 8 2 65 1023 10 N 0
Oggi h: 09:35 sereno Sereno 6 2 75 1023 10 N 0
Oggi h: 09:15 sereno Sereno 5 2 80 1024 10 N 0
Oggi h: 08:55 sereno Sereno 3 0 80 1024 10 N 0
Oggi h: 08:35 sereno Sereno 1 0 93 1024 10 NE 7.4
Oggi h: 08:15 sereno Sereno 0 -1 92 1025 10 N 0
Oggi h: 07:55 sereno Sereno 0 -1 92 1024 10 N 0
Oggi h: 07:35 sereno Sereno -1 -1 100 1025 10 N 5.5
Oggi h: 07:15 sereno Sereno -1 -2 92 1024 10 N 0
Oggi h: 06:55 sereno Sereno -1 -2 92 1025 10 N 0
Oggi h: 06:35 sereno Sereno -1 -2 92 1025 10 N 0
Oggi h: 06:15 sereno Sereno -1 -1 100 1025 10 N 0
Oggi h: 05:55 sereno Sereno -1 -2 92 1026 10 N 0
Oggi h: 05:35 sereno Sereno -1 -1 100 1026 10 N 0
Oggi h: 05:15 sereno Sereno 0 -1 92 1026 10 N 0
Oggi h: 04:55 sereno Sereno -1 -1 100 1026 10 N 0
Oggi h: 04:35 sereno Sereno -1 -2 92 1026 10 N 0
Oggi h: 04:15 sereno Sereno -1 -1 100 1026 10 N 0
Oggi h: 03:55 sereno Sereno 0 -1 92 1026 10 N 0
Oggi h: 03:35 sereno Sereno 0 -1 92 1027 10 N 0
Oggi h: 03:15 sereno Sereno 0 -1 92 1027 10 N 0
Oggi h: 02:55 sereno Sereno 0 0 100 1027 10 N 0
Oggi h: 02:35 sereno Sereno 1 -1 86 1028 10 N 0
Oggi h: 02:15 sereno Sereno 1 -1 86 1028 10 N 0
Oggi h: 01:55 sereno Sereno 2 -1 80 1028 10 N 0
Oggi h: 01:35 sereno Sereno 2 -1 80 1028 10 N 0
Oggi h: 01:15 sereno Sereno 3 0 80 1028 10 N 0
Oggi h: 00:55 sereno Sereno 2 0 86 1029 10 N 0
Oggi h: 00:35 sereno Sereno 3 0 80 1029 10 N 0
Oggi h: 00:15 sereno Sereno 2 0 86 1029 10 N 5.5
Ieri h: 23:55 sereno Sereno 2 0 86 1029 10 N 0
Ieri h: 23:35 sereno Sereno 3 0 80 1029 10 N 0
Ieri h: 23:15 sereno Sereno 4 0 75 1029 10 N 0
Ieri h: 22:55 sereno Sereno 4 0 75 1030 10 N 0
Ieri h: 22:35 sereno Sereno 5 0 70 1030 10 N 0
Ieri h: 22:15 sereno Sereno 5 0 70 1030 10 N 0
Ieri h: 21:55 sereno Sereno 6 0 65 1030 10 N 0
Ieri h: 21:35 sereno Sereno 6 0 65 1031 10 N 0